User: anonymous   Login
Location: Unspecified
(0.0000°N, 0.0000°E)
Time: 17:39:42
(UTC+00:00)
Language:

Aussat K1 - Orbit

View from above orbital plane
View from above orbital plane
View from above satellite
View from above satellite

Ground track
Ground track

The orbit data is extracted from the following two-line orbital elements,

1 15993U 85076B   16337.69616787  .00000104  00000-0  00000+0 0  9997
2 15993  15.2931   9.3556 0007108 258.3858 109.2089  0.99756664 84826
Epoch (UTC): 02 December 2016 16:42:28
Eccentricity: 0.0007108
inclination: 15.2931°
perigee height: 35901 km
apogee height: 35961 km
right ascension of ascending node: 9.3556°
argument of perigee: 258.3858°
revolutions per day: 0.99756664
mean anomaly at epoch: 109.2089°
orbit number at epoch: 8482

The dashed part of the orbit path shows where the satellite is in the earth's shadow,  

DLR